Weather History for KPQI - April, 2013

Change the Weather History Date:

Tuesday, April 30, 2013

  Actual Average Record
Temperature  
Mean Temperature 52 °F -  
Max Temperature 71 °F 58 °F 80 °F (2004)
Min Temperature 33 °F 33 °F 24 °F (2006)
Degree Days  
Heating Degree Days 13    
Growing Degree Days 2 (Base 50)    
Moisture  
Dew Point 32 °F    
Average Humidity 43    
Maximum Humidity 81    
Minimum Humidity 22    
Precipitation  
Precipitation 0.00 in - - ()
Sea Level Pressure  
Sea Level Pressure 30.23 in    
Wind  
Wind Speed 3 mph (SE)    
Max Wind Speed 10 mph    
Max Gust Speed 17 mph    
Visibility 8 miles    
Events      
Averages and records for this station are not official NWS values.
T = Trace of Precipitation, MM = Missing Value Source: NWS Daily Summary

Daily Weather History Graph

Daily Weather History Graph

Search for Another Location

Airport or City:

Trip Planner

Search our weather history database for the weather conditions in past years. The results will help you decide how hot, cold, wet, or windy it might be!

Date:

Astronomy

Apr. 30, 2013 Rise Set
Actual Time 5:18 AM EDT 7:40 PM EDT
Civil Twilight 4:45 AM EDT 8:14 PM EDT
Nautical Twilight 4:03 AM EDT 8:56 PM EDT
Astronomical Twilight 3:15 AM EDT 9:44 PM EDT
Moon 12:05 AM EDT (4/30) 9:39 AM EDT (4/30)
Length of Visible Light 15h 29m
Length of Day
14h 22m
Waning Gibbous, 70% of the Moon is Illuminated
Apr 30
Waning Gibbous
May 2
Last Quarter
May 9
New
May 18
First Quarter
May 25
Full

Hourly Weather History & Observations

Time (EDT) Temp. Windchill Dew Point Humidity Pressure Visibility Wind Dir Wind Speed Gust Speed Precip Events Conditions
12:15 AM 51.8 °F - 28.4 °F 41% 30.18 in 10.0 mi Calm Calm - N/A   Clear
12:35 AM 51.8 °F - 28.4 °F 41% 30.18 in 10.0 mi SE 3.5 mph - N/A   Clear
12:55 AM 50.0 °F - 28.4 °F 43% 30.18 in 10.0 mi South 3.5 mph - N/A   Clear
1:15 AM 50.0 °F - 28.4 °F 43% 30.18 in 10.0 mi SSE 5.8 mph - N/A   Clear
1:35 AM 48.2 °F - 28.4 °F 46% 30.18 in 10.0 mi SSE 4.6 mph - N/A   Clear
1:55 AM 48.2 °F - 28.4 °F 46% 30.19 in 10.0 mi Calm Calm - N/A   Clear
2:15 AM 46.4 °F 44.3 °F 28.4 °F 50% 30.19 in 10.0 mi South 4.6 mph - N/A   Clear
2:55 AM 42.8 °F - 28.4 °F 57% 30.20 in 10.0 mi Calm Calm - N/A   Clear
3:15 AM 44.6 °F - 28.4 °F 53% 30.20 in 10.0 mi Calm Calm - N/A   Clear
3:35 AM 37.4 °F - 30.2 °F 75% 30.20 in 10.0 mi Calm Calm - N/A   Clear
3:55 AM 37.4 °F - 28.4 °F 70% 30.21 in 10.0 mi Calm Calm - N/A   Clear
4:15 AM 37.4 °F - 30.2 °F 75% 30.22 in 10.0 mi Calm Calm - N/A   Clear
4:35 AM 35.6 °F - 28.4 °F 75% 30.22 in 10.0 mi Calm Calm - N/A   Clear
4:55 AM 35.6 °F - 28.4 °F 75% 30.22 in - Calm Calm - N/A   Clear
5:15 AM 33.8 °F - 28.4 °F 81% 30.23 in - Calm Calm - N/A   Clear
5:35 AM 33.8 °F - 28.4 °F 81% 30.23 in - Calm Calm - N/A   Clear
5:55 AM 33.8 °F - 28.4 °F 81% 30.24 in - Calm Calm - N/A   Clear
6:35 AM 37.4 °F - 30.2 °F 75% 30.25 in 10.0 mi Calm Calm - N/A   Clear
6:55 AM 37.4 °F - 32.0 °F 81% 30.26 in 10.0 mi Calm Calm - N/A   Clear
7:15 AM 42.8 °F - 32.0 °F 66% 30.26 in 10.0 mi Calm Calm - N/A   Clear
7:35 AM 46.4 °F - 32.0 °F 57% 30.26 in 10.0 mi Calm Calm - N/A   Clear
7:55 AM 48.2 °F - 30.2 °F 50% 30.27 in 10.0 mi Calm Calm - N/A   Clear
8:15 AM 50.0 °F - 30.2 °F 47% 30.27 in 10.0 mi South 3.5 mph - N/A   Clear
8:35 AM 53.6 °F - 32.0 °F 44% 30.27 in 10.0 mi SE 3.5 mph - N/A   Clear
8:56 AM 55.4 °F - 33.8 °F 44% 30.27 in 10.0 mi South 4.6 mph - N/A   Clear
9:15 AM 55.4 °F - 33.8 °F 44% 30.27 in 10.0 mi SE 4.6 mph - N/A   Clear
9:35 AM 57.2 °F - 33.8 °F 41% 30.27 in 10.0 mi SE 6.9 mph - N/A   Clear
9:55 AM 57.2 °F - 35.6 °F 44% 30.27 in 8.0 mi ESE 8.1 mph - N/A   Clear
10:15 AM 60.8 °F - 35.6 °F 39% 30.26 in 7.0 mi SSE 5.8 mph - N/A   Clear
10:35 AM 62.6 °F - 35.6 °F 37% 30.27 in 4.0 mi SSE 6.9 mph - N/A   Clear
10:55 AM 62.6 °F - 35.6 °F 37% 30.26 in 2.0 mi ESE 4.6 mph - N/A   Clear
11:15 AM 64.4 °F - 35.6 °F 34% 30.25 in 3.0 mi South 3.5 mph - N/A   Clear
11:35 AM 64.4 °F - 33.8 °F 32% 30.24 in 8.0 mi South 4.6 mph - N/A   Clear
11:55 AM 66.2 °F - 33.8 °F 30% 30.24 in 10.0 mi SE 5.8 mph - N/A   Clear
12:15 PM 66.2 °F - 33.8 °F 30% 30.23 in 3.0 mi ENE 4.6 mph - N/A   Clear
12:35 PM 68.0 °F - 32.0 °F 26% 30.23 in 4.0 mi South 5.8 mph - N/A   Clear
12:55 PM 69.8 °F - 30.2 °F 23% 30.22 in 5.0 mi East 8.1 mph - N/A   Clear
1:15 PM 69.8 °F - 32.0 °F 25% 30.21 in 8.0 mi East 8.1 mph - N/A   Clear
1:35 PM 69.8 °F - 30.2 °F 23% 30.21 in 6.0 mi East 6.9 mph - N/A   Clear
1:55 PM 69.8 °F - 30.2 °F 23% 30.21 in 4.0 mi SE 5.8 mph - N/A   Clear
2:15 PM 69.8 °F - 30.2 °F 23% 30.20 in 6.0 mi East 6.9 mph - N/A   Clear
2:35 PM 69.8 °F - 30.2 °F 23% 30.20 in 10.0 mi East 10.4 mph - N/A   Clear
2:55 PM 69.8 °F - 30.2 °F 23% 30.20 in 5.0 mi SE 5.8 mph 17.3 mph N/A   Clear
3:15 PM 71.6 °F - 30.2 °F 22% 30.19 in 3.0 mi SE 6.9 mph 16.1 mph N/A   Clear
3:35 PM 69.8 °F - 30.2 °F 23% 30.19 in 8.0 mi Calm Calm - N/A   Clear
3:55 PM 71.6 °F - 30.2 °F 22% 30.19 in 8.0 mi SE 9.2 mph - N/A   Clear
4:15 PM 71.6 °F - 30.2 °F 22% 30.19 in 5.0 mi SE 6.9 mph - N/A   Clear
4:35 PM 71.6 °F - 30.2 °F 22% 30.19 in 5.0 mi ESE 5.8 mph - N/A   Clear
4:55 PM 71.6 °F - 30.2 °F 22% 30.19 in 6.0 mi SE 9.2 mph - N/A   Clear
5:15 PM 71.6 °F - 30.2 °F 22% 30.19 in 10.0 mi SE 10.4 mph - N/A   Clear
5:35 PM 71.6 °F - 30.2 °F 22% 30.19 in 5.0 mi ESE 10.4 mph - N/A   Clear
5:55 PM 71.6 °F - 30.2 °F 22% 30.20 in 9.0 mi SE 6.9 mph - N/A   Clear
6:15 PM 71.6 °F - 30.2 °F 22% 30.20 in 10.0 mi SE 8.1 mph - N/A   Clear
6:35 PM 69.8 °F - 30.2 °F 23% 30.20 in 10.0 mi SE 5.8 mph - N/A   Clear
6:55 PM 69.8 °F - 30.2 °F 23% 30.20 in 10.0 mi SE 8.1 mph - N/A   Clear
7:15 PM 68.0 °F - 30.2 °F 24% 30.21 in 10.0 mi SSE 4.6 mph - N/A   Clear
7:35 PM 66.2 °F - 30.2 °F 26% 30.22 in 10.0 mi SSE 4.6 mph - N/A   Clear
7:55 PM 62.6 °F - 33.8 °F 34% 30.22 in 10.0 mi Calm Calm - N/A   Clear
8:15 PM 62.6 °F - 33.8 °F 34% 30.23 in 10.0 mi Calm Calm - N/A   Clear
8:35 PM 57.2 °F - 33.8 °F 41% 30.23 in 10.0 mi Calm Calm - N/A   Clear
8:55 PM 53.6 °F - 33.8 °F 47% 30.24 in 10.0 mi Calm Calm - N/A   Clear
9:15 PM 51.8 °F - 35.6 °F 54% 30.24 in 10.0 mi Calm Calm - N/A   Clear
9:35 PM 55.4 °F - 33.8 °F 44% 30.26 in 10.0 mi South 8.1 mph - N/A   Clear
9:55 PM 57.2 °F - 37.4 °F 48% 30.26 in 10.0 mi SSE 9.2 mph - N/A   Clear
10:15 PM 55.4 °F - 37.4 °F 51% 30.27 in 10.0 mi SE 4.6 mph - N/A   Clear
10:35 PM 55.4 °F - 37.4 °F 51% 30.28 in 10.0 mi Calm Calm - N/A   Clear
10:55 PM 55.4 °F - 37.4 °F 51% 30.28 in 10.0 mi ESE 6.9 mph - N/A   Clear
11:15 PM 53.6 °F - 37.4 °F 54% 30.29 in 10.0 mi East 6.9 mph - N/A   Clear
11:35 PM 53.6 °F - 35.6 °F 51% 30.29 in 10.0 mi ESE 5.8 mph - N/A   Clear
11:55 PM 53.6 °F - 35.6 °F 51% 30.29 in 10.0 mi ESE 4.6 mph - N/A   Clear